Flag for U.S.A. Weather past 2 weeks in Costa Mesa, California, U.S.A.

Now
79 °F

Passing clouds.


Feels Like: 80 °F
Forecast: 67 / 83 °F
Wind: 6 mph from North

Location: John Wayne Airport-Orange County Airport

Current Time: Aug 29, 2014 at 11:04:23 AM

Latest Report: Aug 29, 2014 at 9:53 AM


Visibility: 10 mi

Pressure: 29.88 "Hg

Humidity: 50%

Dew point: 59 °F

Location of Costa MesaLocation

Historic Weather in Costa Mesa — Graph

°F

Costa Mesa temperature yesterday

Maximum temperature yesterday: 92 °F (at 12:53 PM)
Minimum temperature yesterday: 73 °F (at 4:53 AM)
Average temperature yesterday: 81 °F

Past Weeks' High & Low Weather Summary

 TemperatureHumidityPressure
High92 °F (Aug 27, 11:53 AM)82% (Aug 15, 5:53 AM)30.03 "Hg (Aug 15, 5:53 AM)
Low68 °F (Aug 15, 5:53 AM)23% (Aug 27, 4:53 PM)29.79 "Hg (Aug 18, 4:53 PM)
Average76 °F61%29.92 "Hg
* Reported Aug 14 9:53 AM — Aug 29 9:53 AM, Costa Mesa, Weather by CustomWeather, © 2014

Note: Actual official high and low records may vary slightly from our data, if they occured in-between our weather recording intervals... More about our weather records

Advertising

Costa Mesa weather history for previous 24 hours

 ConditionsComfort  
Time TempWeatherWind HumidityBarometerVisibility
9:53 AM
Aug 29
79 °FPassing clouds.6 mph50%29.88 "Hg10 mi
8:53 AM75 °FPassing clouds.No wind64%29.88 "Hg10 mi
7:53 AM72 °FSunny.No wind76%29.88 "Hg9 mi
6:53 AM71 °FPassing clouds.No wind73%29.88 "Hg10 mi
5:53 AM71 °FClear.No wind73%29.86 "Hg10 mi
4:53 AM71 °FClear.No wind73%29.85 "Hg10 mi
3:53 AM71 °FClear.No wind73%29.85 "Hg10 mi
2:53 AM71 °FClear.No wind73%29.87 "Hg10 mi
1:53 AM72 °FClear.No wind73%29.88 "Hg10 mi
12:53 AM73 °FClear.No wind69%29.89 "Hg10 mi
11:53 PM
Aug 28
73 °FClear.No wind66%29.89 "Hg10 mi
10:53 PM74 °FPassing clouds.5 mph64%29.90 "Hg10 mi
9:53 PM76 °FPassing clouds.5 mph54%29.91 "Hg10 mi
8:53 PM78 °FClear.5 mph50%29.89 "Hg10 mi
7:53 PM79 °FSunny.3 mph48%29.88 "Hg10 mi
6:53 PM80 °FSunny.3 mph52%29.87 "Hg10 mi
5:53 PM84 °FSunny.6 mph41%29.87 "Hg10 mi
4:53 PM87 °FSunny.9 mph37%29.88 "Hg10 mi
3:53 PM91 °FSunny.8 mph26%29.89 "Hg10 mi
2:53 PM89 °FSunny.9 mph35%29.90 "Hg10 mi
1:53 PM89 °FSunny.10 mph31%29.92 "Hg10 mi
12:53 PM92 °FSunny.8 mph27%29.94 "Hg10 mi
11:53 AM91 °FSunny.7 mph25%29.95 "Hg10 mi
Weather by CustomWeather, © 2014

See weather overviewHow to use our weather pages